www.pogodaiklimat.ru

Погода и климат >> Архив погоды >> Таджикистан >> Пархар


ПОГОДА в Пархаре

  • Прогноз погоды в Пархаре
  • Монитор погоды в Пархаре

АРХИВ ПОГОДЫ в Пархаре

Время (UTC), дата Ветер
(напр.,м/с)
 
Видим.   Явления Облачность Т
(С)
Тd
(С)
f
(%)
Тe
(С)
Тes
(С)
Комфортность P
(гПа)
Po
(гПа)
Тmin
(С)
Tmax
(С)
R
(мм)
R24
(мм)
S
(см)
03 10.09 В 2 4000 м мгла ясно +19.3 +6.8 44 +20 +23 1012.3 961.0 +16.4
06 10.09 штиль 0 4000 м мгла ясно +24.5 +5.5 29 +24 +42 комфорт 1011.4 961.2 +16.4
09 10.09 Ю 1 4000 м мгла ясно +27.2 +5.6 25 +26 +41 жарко 1009.6 959.8
12 10.09 Ю 1 4000 м мгла ясно +27.1 +4.8 24 +26 +29 жарко 1008.0 958.3
15 10.09 штиль 0 н/о мгла ясно +23.4 +8.1 38 +25 +25 комфорт 1008.3 958.0 +28.7
18 10.09 штиль 0 н/о мгла ясно +20.7 +6.5 40 +21 +21 комфорт 1009.4 958.7 +28.7
21 10.09 В 1 н/о мгла ясно +18.5 +5.9 44 +20 +20 1009.5 958.4
00 11.09 С 1 н/о мгла ясно +16.1 +5.9 51 +17 +17 1010.7 958.7
03 11.09 штиль 0 4000 м мгла ясно +18.1 +6.1 45 +18 +22 1012.3 960.7 +14.5
06 11.09 Ю 1 10 км ясно +24.8 +9.2 37 +25 +41 комфорт 1012.0 961.8 +14.5
09 11.09 Ю 2 10 км ясно +28.0 +6.4 25 +27 +40 жарко 1008.9 959.3
12 11.09 Ю 1 10 км ясно +28.6 +5.8 24 +27 +30 жарко 1007.3 957.9
15 11.09 штиль 0 н/о ясно +24.5 +7.4 33 +25 +25 комфорт 1008.5 958.5 +30.7
18 11.09 С 2 н/о ясно +21.6 +5.9 36 +22 +22 комфорт 1009.3 958.8 +30.7
21 11.09 С 2 н/о ясно +18.4 +7.8 50 +19 +19 1009.8 958.7
00 12.09 штиль 0 н/о ясно +16.5 +8.0 57 +16 +16 1010.7 959.2
03 12.09 С 2 10 км ясно +18.3 +6.7 47 +19 +22 1012.2 960.8 +15.2
06 12.09 Ю 1 10 км ясно +24.7 +8.5 36 +25 +41 комфорт 1011.7 961.5 +15.2
09 12.09 Ю 2 10 км ясно +28.7 +6.5 25 +28 +40 жарко 1009.6 960.1
12 12.09 Ю 2 10 км ясно +29.0 +6.4 24 +28 +30 жарко 1007.8 958.4
15 12.09 штиль 0 н/о ясно +24.1 +9.4 39 +25 +25 комфорт 1007.4 957.4 +30.7
18 12.09 С 1 н/о ясно +22.3 +7.3 38 +23 +23 комфорт 1008.0 957.5 +30.7
21 12.09 С 3 н/о ясно +18.2 +7.3 49 +18 +18 1008.9 957.7
00 13.09 С 3 н/о ясно +17.8 +6.5 47 +18 +18 1009.1 957.9
03 13.09 С 1 10 км ясно +18.8 +6.7 45 +20 +24 1010.4 959.2 +16.2
06 13.09 штиль 0 10 км ясно +26.4 +8.8 33 +27 +44 жарко 1008.6 958.9 +16.2
09 13.09 Ю 1 10 км ясно +30.2 +7.4 24 +29 +44 жарко 1006.7 957.5
12 13.09 Ю 1 10 км ясно +30.5 +6.5 22 +29 +31 жарко 1004.9 955.9
15 13.09 штиль 0 н/о ясно +25.3 +11.4 42 +27 +27 жарко 1006.4 956.6 +31.4
18 13.09 штиль 0 н/о ясно +21.7 +9.4 45 +23 +23 комфорт 1007.8 957.3 +31.4
21 13.09 С 1 н/о ясно +18.9 +7.6 48 +21 +21 комфорт 1008.2 957.1
00 14.09 С 1 н/о ясно +17.9 +6.4 47 +19 +19 1008.3 957.1
03 14.09 СВ 1 10 км ясно +19.1 +6.8 45 +21 +24 комфорт 1008.5 957.4 +14.6
06 14.09 штиль 0 10 км ясно +27.5 +10.3 34 +28 +45 жарко 1008.2 958.7 +14.6
09 14.09 Ю 2 10 км ясно +31.1 +5.1 19 +29 +41 жарко 1006.1 957.1
12 14.09 Ю 1 10 км ясно +31.3 +8.0 23 +30 +32 жарко 1004.4 955.6
15 14.09 штиль 0 н/о 3/0
[]
+26.3 +10.2 36 +27 +27 жарко 1005.2 955.6 +32.7
18 14.09 В 2 н/о 3/0
[Ac trans]
+22.4 +6.4 35 +23 +23 комфорт 1006.6 957.3 +32.7
21 14.09 В 2 н/о ясно +20.9 +2.3 29 +22 +22 комфорт 1008.2 957.5
00 15.09 З 1 н/о ясно +1.5 -2 -2 1010.4 959.4
03 15.09 СВ 1 20 км ясно +20.2 +3.6 33 +22 +25 комфорт 1011.4 960.4 +16.7
06 15.09 В 2 20 км ясно +27.5 +5.0 24 +26 +39 жарко 1010.8 961.1 +16.7
09 15.09 Ю 2 20 км ясно +30.3 +3.0 18 +28 +40 жарко 1008.9 959.6
12 15.09 Ю 1 20 км ясно +30.5 +6.1 22 +29 +31 жарко 1007.1 958.1
15 15.09 штиль 0 н/о ясно +24.5 +6.5 31 +24 +24 комфорт 1008.6 958.6 +31.8
18 15.09 С 1 н/о ясно +20.8 +6.4 39 +23 +23 комфорт 1010.5 959.7 +31.8
21 15.09 н/о ясно +18.3 +4.8 41 1011.4 960.0
00 16.09 С 2 н/о ясно +16.0 +4.8 47 +16 +16 1012.5 960.8
03 16.09 С 1 20 км ясно +18.8 +4.1 38 +20 +23 1013.2 961.9 +14.9
06 16.09 Ю 1 20 км ясно +26.7 +5.0 25 +26 +40 жарко 1012.2 962.3 +14.9
09 16.09 Ю 1 20 км ясно +29.4 +3.6 19 +27 +41 жарко 1010.4 960.9
12 16.09 ЮВ 1 20 км ясно +29.8 +5.8 22 +28 +31 жарко 1008.8 959.5
15 16.09 штиль 0 н/о ясно +23.6 +9.7 41 +25 +25 комфорт 1009.9 959.6 +31.3
18 16.09 С 3 н/о ясно +21.9 +5.0 33 +22 +22 комфорт 1010.8 960.2 +31.3
21 16.09 С 1 н/о ясно +19.1 +4.6 38 +21 +21 комфорт 1011.9 960.7
00 17.09 С 3 н/о ясно +16.3 +5.5 49 +16 +16 1012.6 960.9

 

Местоположение метеостанции Пархар (Таджикистан): широта 37.48 долгота 69.38 высота над уровнем моря 448 м.

В архиве по умолчанию представлена погода в Пархаре за последнюю неделю. Архивные данные за месяц целиком и за предыдущие месяцы, начиная с января 2011 года, Вы можете получить, выбрав интересующий диапазон дат из раскрывающегося списка и нажав кнопку "Ввод!".


*Определитесь, кто Вы:
робот инопланетянин человек

Внимание! Время в таблицах - всемирное. Для получения местного времени необходимо прибавить поправку, которая равна 5 ч.

Смотрите также архив погоды в соседних городах и на ближайших метеорологических станциях:

Погода в Хамадони (Таджикистан) (31 км)
Погода в Пьяндже (Таджикистан) (38 км)
Погода в Кулябе (Таджикистан) (60 км)
Погода в Курган-Тюбе (Таджикистан) (65 км)
Погода в Дангаре (Таджикистан) (69 км)
Погода в Исанбай (Таджикистан) (84 км)
Погода в Ганжине (Таджикистан) (88 км)
Погода в Кундузе (Афганистан) (99 км)
Погода в Санглоке (Таджикистан) (119 км)
Погода в Душанбе (Таджикистан) (130 км)

Пояснения к столбцам:

Ветер - указаны скорость ветра в м/с - средняя за 10 мин, порывы в срок и между сроками (в фигурных скобках) и направление, откуда дует ветер: С - северный, СВ - северо-восточный, В - восточный, ЮВ - юго-восточный, Ю - южный, ЮЗ - юго-западный, З - западный, СЗ - северо-западный.
Видимость - горизонтальная дальность видимости в метрах или километрах. При видимости от 1 до 10 км при отсутствии осадков обычно наблюдается дымка, при ухудшении видимости до 1 км и менее - туман. В сухую погоду видимость может ухудшаться дымом, пылью или мглою.
Явления - указаны атмосферные явления, наблюдавшиеся в срок или в последний час перед сроком; фигурными скобками обозначены явления, наблюдавшиеся между сроками (за 1-3 часа до срока); квадратными скобками обозначены град или гололедные отложения с указанием их диаметра в мм.
Облачность - указаны через наклонную черту общая и нижняя облачность в баллах и высота нижней границы облаков в метрах; квадратными скобками обозначены формы облаков: Ci - перистые, Cs - перисто-слоистые, Cc - перисто-кучевые, Ac - высококучевые, As - высокослоистые, Sc - слоисто-кучевые, Ns - слоисто-дождевые, Cu - кучевые, Cb - кучево-дождевые. Подробнее классификацию облаков см. в Атласе облаков (PDF).
T - Температура воздуха - температура, измеренная на высоте 2 м над землей.
Td - Температура точки росы - температура, при понижении до которой содержащийся в воздухе водяной пар достигнет насыщения.
f - Относительная влажность воздуха - влажноcть воздуха, измеренная на высоте 2 м над землей.
Te - Эффективная температура - температура, которую ощущает одетый по сезону человек в тени. Характеристика душности погоды. При расчете учитывается влияние влажности воздуха и скорости ветра на теплоощущения человека.
Tes - Эффективная температура на солнце - температура, которую ощущает человек, с поправкой на солнечный нагрев. Характеристика знойности погоды. Зависит от высоты солнца над горизонтом, облачности и скорости ветра. Ночью, в пасмурную погоду, а также при ветре 12 м/с и более поправка равна нулю.
P - Атмосферное давление - приведенное к уровню моря атмосферное давление.
Po - Атмосферное давление - измеренное на уровне метеостанции атмосферное давление.
Tmin - Минимальная температура - минимум температуры воздуха на высоте 2 м над землей.
Tmax - Максимальная температура - максимум температуры воздуха на высоте 2 м над землей.
R - Количество осадков - Количество выпавших осадков за период времени, мм. При наведении курсора мыши на число - период времени, за который выпало указанное количество осадков.
R24 - Количество осадков - Количество выпавших осадков за 24 часа, мм.
S - Снежный покров - Высота снежного покрова, см. При наведении курсора мыши на число - состояние снежного покрова и степень покрытия местности в баллах.